EN

Hourly Weather Alvarado

Today, 21 January, Thursday

Time Temperature Precipitation Wind Pressure Humidity
00:00 +26°C° 0.3 mm 1 mps 724 mmHg 78%
01:00 +25°C° 0.3 mm 1 mps 724 mmHg 79%
02:00 +25°C° 0.4 mm 1 mps 724 mmHg 80%
03:00 +25°C° 0.4 mm 1 mps 724 mmHg 81%
04:00 +24°C° 0.4 mm 1 mps 724 mmHg 81%
05:00 +25°C° 0.3 mm 1 mps 724 mmHg 81%
06:00 +25°C° 0.3 mm 1 mps 725 mmHg 80%
07:00 +23°C° 0.3 mm 0 mps 725 mmHg 79%
08:00 +27°C° 0 mm 1 mps 725 mmHg 74%
09:00 +29°C° 0 mm 1 mps 725 mmHg 70%
10:00 +30°C° 0 mm 1 mps 725 mmHg 65%
11:00 +32°C° 0 mm 1 mps 724 mmHg 61%
12:00 +33°C° 0 mm 1 mps 723 mmHg 58%
13:00 +35°C° 0 mm 2 mps 722 mmHg 54%
14:00 +34°C° 0.1 mm 1 mps 722 mmHg 54%
15:00 +33°C° 0.1 mm 1 mps 722 mmHg 54%
16:00 +33°C° 0.1 mm 1 mps 721 mmHg 54%
17:00 +32°C° 0.1 mm 1 mps 722 mmHg 61%
18:00 +30°C° 0.1 mm 1 mps 722 mmHg 67%
19:00 +28°C° 0.1 mm 1 mps 723 mmHg 74%
20:00 +28°C° 0.4 mm 1 mps 723 mmHg 76%
21:00 +27°C° 0.4 mm 1 mps 724 mmHg 78%
22:00 +26°C° 0.4 mm 1 mps 725 mmHg 80%
23:00 +26°C° 0.3 mm 1 mps 724 mmHg 80%

Tomorrow, 22 January, Friday

Time Temperature Precipitation Wind Pressure Humidity
00:00 +25°C° 0.3 mm 1 mps 724 mmHg 81%
01:00 +25°C° 0.3 mm 1 mps 724 mmHg 81%
02:00 +25°C° 0.1 mm 1 mps 724 mmHg 81%
03:00 +25°C° 0.1 mm 1 mps 724 mmHg 81%
04:00 +22°C° 0.1 mm 0 mps 723 mmHg 81%
05:00 +23°C° 0.2 mm 0 mps 724 mmHg 81%
06:00 +23°C° 0.2 mm 0 mps 724 mmHg 81%
07:00 +23°C° 0.2 mm 0 mps 725 mmHg 81%
08:00 +27°C° 0.1 mm 1 mps 725 mmHg 76%
09:00 +29°C° 0.1 mm 1 mps 725 mmHg 71%
10:00 +30°C° 0.1 mm 2 mps 725 mmHg 65%
11:00 +31°C° 0.2 mm 2 mps 724 mmHg 62%
12:00 +32°C° 0.2 mm 2 mps 724 mmHg 58%
13:00 +35°C° 0.2 mm 2 mps 723 mmHg 54%
14:00 +34°C° 0.2 mm 2 mps 723 mmHg 55%
15:00 +33°C° 0.2 mm 1 mps 722 mmHg 55%
16:00 +33°C° 0.2 mm 1 mps 722 mmHg 56%
17:00 +31°C° 0.6 mm 1 mps 723 mmHg 63%
18:00 +30°C° 0.6 mm 1 mps 723 mmHg 69%
19:00 +28°C° 0.6 mm 1 mps 724 mmHg 76%
20:00 +28°C° 0.9 mm 1 mps 724 mmHg 78%
21:00 +27°C° 0.9 mm 1 mps 725 mmHg 81%
22:00 +26°C° 0.9 mm 1 mps 725 mmHg 83%
23:00 +26°C° 0.7 mm 1 mps 725 mmHg 83%

Day after tomorrow, 23 January, Saturday

Time Temperature Precipitation Wind Pressure Humidity
00:00 +26°C° 0.7 mm 1 mps 725 mmHg 83%
01:00 +24°C° 0.7 mm 0 mps 725 mmHg 84%
02:00 +23°C° 0.6 mm 0 mps 724 mmHg 84%
03:00 +23°C° 0.6 mm 0 mps 724 mmHg 84%
04:00 +25°C° 0.6 mm 1 mps 724 mmHg 85%
05:00 +23°C° 0.6 mm 0 mps 724 mmHg 84%
06:00 +23°C° 0.6 mm 0 mps 725 mmHg 84%
07:00 +24°C° 0.6 mm 0 mps 725 mmHg 83%
08:00 +25°C° 0.6 mm 0 mps 726 mmHg 78%
09:00 +26°C° 0.6 mm 0 mps 726 mmHg 73%
10:00 +29°C° 0.6 mm 1 mps 726 mmHg 69%
11:00 +30°C° 0.2 mm 1 mps 725 mmHg 65%
12:00 +31°C° 0.2 mm 1 mps 724 mmHg 61%
13:00 +34°C° 0.2 mm 2 mps 724 mmHg 57%
14:00 +32°C° 0.2 mm 1 mps 723 mmHg 59%
15:00 +32°C° 0.2 mm 1 mps 722 mmHg 60%
16:00 +32°C° 0.2 mm 1 mps 722 mmHg 61%
17:00 +30°C° 0.3 mm 1 mps 722 mmHg 67%
18:00 +29°C° 0.3 mm 1 mps 723 mmHg 73%
19:00 +28°C° 0.3 mm 1 mps 723 mmHg 78%
20:00 +27°C° 0.9 mm 1 mps 724 mmHg 80%
21:00 +27°C° 0.9 mm 1 mps 725 mmHg 81%
22:00 +26°C° 0.9 mm 1 mps 725 mmHg 83%
23:00 +26°C° 0.6 mm 1 mps 725 mmHg 83%

24 January, Sunday

Time Temperature Precipitation Wind Pressure Humidity
00:00 +26°C° 0.6 mm 1 mps 725 mmHg 84%
01:00 +25°C° 0.6 mm 1 mps 724 mmHg 84%
02:00 +25°C° 0.7 mm 1 mps 724 mmHg 85%
03:00 +25°C° 0.7 mm 1 mps 724 mmHg 85%
04:00 +24°C° 0.7 mm 1 mps 724 mmHg 86%
05:00 +24°C° 0.5 mm 1 mps 724 mmHg 86%
06:00 +25°C° 0.5 mm 1 mps 724 mmHg 86%
07:00 +23°C° 0.5 mm 0 mps 725 mmHg 85%
08:00 +26°C° 0.1 mm 1 mps 725 mmHg 81%
09:00 +28°C° 0.1 mm 1 mps 725 mmHg 77%
10:00 +29°C° 0.1 mm 1 mps 725 mmHg 72%
11:00 +30°C° 0.1 mm 2 mps 724 mmHg 67%
12:00 +31°C° 0.1 mm 2 mps 723 mmHg 63%
13:00 +32°C° 0.1 mm 2 mps 722 mmHg 58%
14:00 +32°C° 0.1 mm 2 mps 722 mmHg 58%
15:00 +32°C° 0.1 mm 2 mps 721 mmHg 59%
16:00 +32°C° 0.1 mm 2 mps 721 mmHg 59%
17:00 +31°C° 0.3 mm 1 mps 721 mmHg 65%
18:00 +29°C° 0.3 mm 1 mps 722 mmHg 70%
19:00 +26°C° 0.3 mm 0 mps 723 mmHg 76%
20:00 +25°C° 0.7 mm 0 mps 723 mmHg 79%
21:00 +27°C° 0.7 mm 1 mps 724 mmHg 81%
22:00 +26°C° 0.7 mm 1 mps 724 mmHg 84%
23:00 +26°C° 1.3 mm 1 mps 724 mmHg 86%

25 January, Monday

Time Temperature Precipitation Wind Pressure Humidity
00:00 +24°C° 1.3 mm 0 mps 724 mmHg 88%
01:00 +23°C° 1.3 mm 0 mps 723 mmHg 90%
02:00 +23°C° 0.7 mm 0 mps 723 mmHg 89%
03:00 +23°C° 0.7 mm 0 mps 723 mmHg 89%
04:00 +23°C° 0.7 mm 0 mps 723 mmHg 88%
05:00 +23°C° 0.6 mm 0 mps 723 mmHg 88%
06:00 +25°C° 0.6 mm 1 mps 724 mmHg 88%
07:00 +25°C° 0.6 mm 1 mps 724 mmHg 88%
08:00 +27°C° 0.2 mm 1 mps 724 mmHg 83%
09:00 +28°C° 0.2 mm 1 mps 724 mmHg 77%
10:00 +30°C° 0.2 mm 2 mps 724 mmHg 72%
11:00 +31°C° 0.2 mm 2 mps 724 mmHg 67%
12:00 +32°C° 0.2 mm 2 mps 723 mmHg 63%
13:00 +34°C° 0.2 mm 3 mps 722 mmHg 58%
14:00 +34°C° 0.2 mm 2 mps 722 mmHg 59%
15:00 +34°C° 0.2 mm 2 mps 721 mmHg 59%
16:00 +32°C° 0.2 mm 2 mps 720 mmHg 60%
17:00 +31°C° 0.2 mm 1 mps 721 mmHg 65%
18:00 +30°C° 0.2 mm 1 mps 721 mmHg 70%
19:00 +28°C° 0.2 mm 1 mps 722 mmHg 75%
20:00 +28°C° 0.7 mm 1 mps 722 mmHg 77%
21:00 +27°C° 0.7 mm 1 mps 723 mmHg 78%
22:00 +27°C° 0.7 mm 1 mps 724 mmHg 80%
23:00 +26°C° 0.8 mm 1 mps 723 mmHg 81%

26 January, Tuesday

Time Temperature Precipitation Wind Pressure Humidity
00:00 +26°C° 0.8 mm 1 mps 723 mmHg 83%
01:00 +26°C° 0.8 mm 1 mps 723 mmHg 84%
02:00 +25°C° 0.9 mm 1 mps 723 mmHg 85%
03:00 +23°C° 0.9 mm 0 mps 723 mmHg 86%
04:00 +23°C° 0.9 mm 0 mps 723 mmHg 87%
05:00 +23°C° 1.1 mm 0 mps 723 mmHg 87%
06:00 +23°C° 1.1 mm 0 mps 724 mmHg 87%
07:00 +23°C° 1.1 mm 0 mps 724 mmHg 87%
08:00 +24°C° 0.5 mm 0 mps 724 mmHg 83%
09:00 +25°C° 0.5 mm 0 mps 725 mmHg 80%
10:00 +28°C° 0.5 mm 1 mps 725 mmHg 76%
11:00 +30°C° 0.2 mm 1 mps 724 mmHg 71%
12:00 +31°C° 0.2 mm 1 mps 723 mmHg 65%
13:00 +33°C° 0.2 mm 1 mps 723 mmHg 60%
14:00 +33°C° 0.1 mm 1 mps 722 mmHg 60%
15:00 +33°C° 0.1 mm 1 mps 722 mmHg 59%
16:00 +33°C° 0.1 mm 1 mps 721 mmHg 59%
17:00 +31°C° 0.1 mm 1 mps 722 mmHg 65%
18:00 +30°C° 0.1 mm 1 mps 722 mmHg 70%
19:00 +28°C° 0.1 mm 1 mps 723 mmHg 76%
20:00 +27°C° 0.8 mm 1 mps 723 mmHg 79%
21:00 +27°C° 0.8 mm 1 mps 724 mmHg 81%
22:00 +26°C° 0.8 mm 1 mps 724 mmHg 84%
23:00 +26°C° 0.5 mm 1 mps 724 mmHg 83%
Show more